Time,TemperatureF,DewpointF,PressureIn,WindDirection,WindDirectionDegrees,WindSpeedMPH,WindSpeedGustMPH,Humidity,HourlyPrecipIn,Conditions,Clouds,dailyrainin,SoftwareType,DateUTC
2018-02-24 00:07:00,76.0,71.0,30.24,ESE,105,13.0,22.0,84,-99.99,,,-99.99,,2018-02-24 05:07:00,
2018-02-24 00:36:00,74.0,70.0,30.24,East,99,10.0,21.0,86,-99.99,,,-99.99,,2018-02-24 05:36:00,
2018-02-24 01:07:00,74.0,68.0,30.23,ESE,112,11.0,16.0,82,-99.99,,,-99.99,,2018-02-24 06:07:00,
2018-02-24 01:36:00,73.0,69.0,30.24,SE,128,14.0,24.0,86,-99.99,,,-99.99,,2018-02-24 06:36:00,
2018-02-24 02:06:00,71.0,67.0,30.22,SE,130,6.0,8.0,88,-99.99,,,-99.99,,2018-02-24 07:06:00,
2018-02-24 02:36:00,73.0,70.0,30.21,SE,124,10.0,13.0,89,-99.99,,,-99.99,,2018-02-24 07:36:00,
2018-02-24 03:07:00,73.0,70.0,30.21,ESE,103,6.0,9.0,90,-99.99,,,-99.99,,2018-02-24 08:07:00,
2018-02-24 03:36:00,73.0,70.0,30.20,ESE,102,12.0,18.0,89,-99.99,,,-99.99,,2018-02-24 08:36:00,
2018-02-24 04:08:00,74.0,70.0,30.19,ESE,110,10.0,14.0,88,-99.99,,,-99.99,,2018-02-24 09:08:00,
2018-02-24 04:37:00,74.0,70.0,30.19,East,101,14.0,22.0,86,-99.99,,,-99.99,,2018-02-24 09:37:00,
2018-02-24 05:07:00,74.0,69.0,30.19,ESE,121,12.0,19.0,85,-99.99,,,-99.99,,2018-02-24 10:07:00,
2018-02-24 05:36:00,75.0,70.0,30.19,ESE,110,10.0,16.0,84,-99.99,,,-99.99,,2018-02-24 10:36:00,
2018-02-24 06:07:00,75.0,70.0,30.19,SE,124,10.0,18.0,84,-99.99,,,-99.99,,2018-02-24 11:07:00,
2018-02-24 06:36:00,74.0,69.0,30.19,ESE,102,10.0,21.0,85,-99.99,,,-99.99,,2018-02-24 11:36:00,
2018-02-24 07:07:00,74.0,70.0,30.20,SE,139,10.0,16.0,86,-99.99,,,-99.99,,2018-02-24 12:07:00,
2018-02-24 07:36:00,75.0,70.0,30.20,ESE,110,10.0,16.0,84,-99.99,,,-99.99,,2018-02-24 12:36:00,
2018-02-24 08:07:00,76.0,70.0,30.21,ESE,116,10.0,21.0,83,-99.99,,,-99.99,,2018-02-24 13:07:00,
2018-02-24 08:37:00,77.0,71.0,30.22,ESE,107,10.0,22.0,81,-99.99,,,-99.99,,2018-02-24 13:37:00,
2018-02-24 09:07:00,77.0,71.0,30.22,ESE,108,13.0,22.0,81,-99.99,,,-99.99,,2018-02-24 14:07:00,
2018-02-24 09:36:00,78.0,71.0,30.23,ESE,109,12.0,21.0,78,-99.99,,,-99.99,,2018-02-24 14:36:00,
2018-02-24 10:07:00,79.0,71.0,30.23,SE,133,12.0,24.0,77,-99.99,,,-99.99,,2018-02-24 15:07:00,
2018-02-24 10:36:00,79.0,71.0,30.23,SE,124,12.0,-999.0,76,-99.99,,,-99.99,,2018-02-24 15:36:00,
2018-02-24 11:07:00,80.0,71.0,30.23,ESE,116,13.0,21.0,74,-99.99,,,-99.99,,2018-02-24 16:07:00,